SL-14 R/B, 20741

Orbit data source: Space-Track

SL-14 R/B, 20741 is space debris in LEO originally from a launch on Wed, 08 Aug 1990 UTC launched from the Plesetsk Missile And Space Complex (PKMTR). Debris objects in space refer to the collection of defunct objects orbiting the Earth. Examples of debris include non-operational satellites, rocket bodies, and fragments generated from explosions, collisions, or faulty payload assembly.

Loading next visibility...
Identifier
20741, 1990-070G
Orbit
LEO
Country
Flag of CISCIS
Related business
Manufacturer
Yuzhnoe
Mission
Spacecraft
Bus & Motor
S5M, Unknown motor
Mass
1,600 kg wet, 1,600 kg dry
Launch date (UTC)
1990-08-08 (35 years ago)
Launch vehicle
Unknown
Launch site
Plesetsk Missile And Space Complex (PKMTR)
Object type
Payload
Rocket body
Debris
Shape & HBR
Cyl, 1.4 m
Radar Cross Section
7.351 m², Large (>1 m²)

Expand to show TLE details & history
Last TLE update: 11 hours ago

TLE from 11 hours ago
0 SL-14 R/B
1 20741U 90070G   25353.25870824  .00000019  00000-0  48969-4 0  9994
2 20741  82.5756 183.6816 0036707  99.8719  73.6634 12.55715961620940
Epoch: 2025-12-19T06:12Z
TLE epoch observation values (Epoch: 2025-12-19T06:12:32.391Z)
Latitude
5.93551°
Longitude
-178.32824°
Altitude
1,434.848 km
Speed
7.148 km/s
True Right ascension
00h 11m 38s
True Declination
5° 54' 12"
Sunlit
Object was in daylight at epoch
Visualization orbit readout
Latitude
Unknown
Longitude
Unknown
Altitude
Unknown
Speed
Unknown
Apparent Right ascension
Unknown
Apparent Declination
Unknown
Sunlit
N/A
Visualization observer readout
Local Sidereal Time
16:29:09
Azimuth
Unknown
Elevation
Unknown
Doppler factor
Unknown
Orbital elements
Apogee altitude
1,466.698 km
Perigee altitude
1,409.317 km
Semi-major axis
7,816.144 km
Eccentricity
0.00367
Inclination
82.5756°
RAAN
183.6816°
Arg. of periapsis
99.8719°
True anomaly
74.06757°
Mean anomaly
73.6634°
Eccentric anomaly
73.86543°
Mean motion
3.1409 °/min
Orbital period
114.62 mins
BSTAR
0.000048969
Loading maneuver chart data...
Computing Atmospheric mass density...
Loading historical data...
Loading historical data...
Loading historical data...
Loading historical data...
Loading historical data...
Loading historical data...
Loading historical data...

Documentation

Showing up to 5 results
|